Location: Marse
(42.1502°N, 110.9866°W)
Time: 18:35:13
(UTC+00:00)

ZACube-1 - Pass Details

Date: 30 June 2022
Orbit: 582 x 661 km, 97.6° (Epoch: 06 August)

Event Time Altitude Azimuth Distance (km) Brightness Sun altitude
Rises 10:01:20 0° 34° (NE) 2,952 ? -15.7°
Reaches altitude 10° 10:04:44 10° 62° (ENE) 2,052 ? -15.3°
Maximum altitude 10:06:51 13° 90° (E) 1,854 ? -15.1°
Drops below altitude 10° 10:08:58 10° 118° (ESE) 2,061 ? -14.8°
Sets 10:12:22 0° 146° (SE) 2,975 ? -14.4°
